Location: *
(51.4660°N, 0.3360°W)
Time: 06:07:46
(UTC+00:00)

Cosmos 2082 - Pass Details

Date: 19 September 2019
Orbit: 834 x 855 km, 71.0° (Epoch: 19 October)

Event Time Altitude Azimuth Distance (km) Brightness Sun altitude
Rises 20:13:41 0° 189° (S) 3,412 6.7 -19.6°
Reaches altitude 10° 20:16:11 10° 184° (S) 2,481 5.9 -20.0°
Maximum altitude 20:21:39 49° 111° (ESE) 1,096 3.8 -20.7°
Drops below altitude 10° 20:27:08 10° 38° (NE) 2,494 6.1 -21.4°
Sets 20:29:39 0° 33° (NNE) 3,432 6.9 -21.7°
